Home   Weather   Dalian   Past weeks

Flag for China Past Weather in Dalian, Liaoning, China — Yesterday and Last 2 Weeks

45 °F

Broken clouds.

Feels Like: 37 °F
Forecast: 48 / 61 °F
Wind: 20 mph from North

Location: Dalian Airport

Current Time: Oct 22, 2016 at 7:52:30 AM

Latest Report: Oct 22, 2016 at 7:00 AM

Visibility: 4 mi

Pressure: 30.12 "Hg

Humidity: 81%

Dew Point: 39 °F

Location of DalianLocation

Past Weather in Dalian — Graph


Dalian Temperature Yesterday

Maximum temperature yesterday: 70 °F (at 12:30 PM)
Minimum temperature yesterday: 54 °F (at 12:00 AM)
Average temperature yesterday: 61 °F

High & Low Weather Summary for the Past Weeks

High77 °F (Oct 19, 12:00 PM)94% (Oct 15, 5:00 AM)30.33 "Hg (Oct 15, 5:00 AM)
Low43 °F (Oct 9, 6:00 AM)30% (Oct 17, 2:30 PM)29.92 "Hg (Oct 8, 4:00 AM)
Average61 °F63%30.14 "Hg
* Reported Oct 7 6:00 AM — Oct 22 6:30 AM, Dalian, Weather by CustomWeather, © 2016

Note: Actual official high and low records may vary slightly from our data, if they occured in-between our weather recording intervals... More about our weather records


Dalian Weather History for the Previous 24 Hours

Scroll right to see more
Time TempWeatherWind HumidityBarometerVisibility
6:30 AM
Sat, Oct 22
45 °FFog.20 mph87%30.12 "Hg3 mi
6:00 AM46 °FFog.17 mph82%30.09 "Hg2 mi
5:30 AM46 °FLight rain. Fog.15 mph87%30.09 "Hg2 mi
5:00 AM46 °FFog.17 mph87%30.09 "Hg2 mi
4:30 AM48 °FFog.15 mph87%30.09 "Hg2 mi
4:00 AM50 °FLight rain. Fog.17 mph82%30.07 "Hg2 mi
3:30 AM50 °FLight rain. Fog.13 mph88%30.07 "Hg2 mi
3:00 AM50 °FLight rain. Fog.15 mph88%30.07 "Hg2 mi
2:30 AM50 °FLight rain. Fog.13 mph94%30.07 "Hg1 mi
2:00 AM52 °FLight rain. Fog.15 mph94%30.04 "Hg1 mi
1:30 AM54 °FLight rain. Fog.8 mph94%30.04 "Hg1 mi
1:00 AM55 °FLight rain. Fog.13 mph82%30.04 "Hg1 mi
12:30 AM59 °FLight rain. Fog.13 mph94%30.04 "Hg2 mi
12:00 AM61 °FLight rain. Fog.6 mph94%30.04 "Hg2 mi
11:30 PM
Fri, Oct 21
61 °FLight rain. Fog.8 mph83%30.04 "Hg3 mi
11:00 PM63 °FLight rain. Overcast.6 mph77%30.04 "Hg4 mi
10:30 PM64 °FPassing clouds.1 mph78%30.04 "HgN/A
10:00 PM64 °FPassing clouds.3 mph78%30.01 "HgN/A
9:30 PM64 °FLight rain. Passing clouds.1 mph73%30.01 "HgN/A
9:00 PM64 °FPassing clouds.No wind73%30.04 "HgN/A
8:30 PM64 °FPassing clouds.1 mph73%30.04 "HgN/A
8:00 PM64 °FPassing clouds.3 mph73%30.04 "HgN/A
7:30 PM64 °FPassing clouds.1 mph78%30.04 "HgN/A
7:00 PM64 °FPassing clouds.3 mph78%30.04 "Hg5 mi
6:30 PM63 °FPassing clouds.3 mph88%30.01 "Hg5 mi
6:00 PM64 °FPassing clouds.6 mph78%30.01 "Hg5 mi
5:30 PM64 °FPassing clouds.6 mph83%30.01 "Hg4 mi
5:00 PM64 °FFog.6 mph83%30.01 "Hg3 mi
4:30 PM64 °FFog.8 mph83%30.01 "Hg3 mi
4:00 PM66 °FClear.10 mph78%30.01 "Hg4 mi
3:30 PM66 °FClear.13 mph78%30.01 "Hg4 mi
3:00 PM68 °FSunny.10 mph73%30.01 "Hg10 mi
2:30 PM68 °FSunny.8 mph69%30.01 "Hg10 mi
2:00 PM68 °FPassing clouds.8 mph69%30.01 "HgN/A
1:30 PM68 °FSunny.8 mph69%30.01 "Hg10 mi
1:00 PM68 °FPassing clouds.8 mph69%30.04 "HgN/A
12:30 PM70 °FPassing clouds.8 mph64%30.04 "HgN/A
12:00 PM68 °FPassing clouds.6 mph64%30.04 "HgN/A
11:30 AM68 °FPassing clouds.3 mph64%30.07 "HgN/A
11:00 AM64 °FSunny.3 mph68%30.09 "Hg10 mi
10:30 AM64 °FSunny.1 mph56%30.09 "Hg10 mi
10:00 AM63 °FSunny.1 mph59%30.09 "Hg10 mi
9:30 AM61 °FSunny.1 mph63%30.09 "Hg10 mi
9:00 AM61 °FPassing clouds.3 mph55%30.09 "HgN/A
8:30 AM59 °FSunny.1 mph51%30.09 "Hg10 mi
8:00 AM57 °FSunny.1 mph55%30.09 "Hg10 mi
7:30 AM55 °FSunny.1 mph59%30.12 "Hg10 mi
7:00 AM55 °FSunny.3 mph59%30.09 "Hg10 mi
Weather by CustomWeather, © 2016

See weather overviewHow to use our weather pages